This demonstration page uses our WeatherBlox Daily Observations layout. Learn more.

Left ArrowRight Arrow

41.86663, -103.66717

Hourly Observations for September 11, 2021

Temp ( °F °C ) Dew Point ( °F °C ) Humidity (%) Winds ( mph kmh ) Pressure ( in mb ) Visibility ( mi km ) Precip ( " mm )
12:53 am 00:53 Clear 64 17.8 44 6.7 48 48 VRB 3 6 29.83 1010 10 16 0.00 0.00
1:53 am 01:53 Clear 65 18.3 43 6.1 45 45 NW 9 15 29.81 1010 10 16 0.00 0.00
2:53 am 02:53 Clear 61 16.1 43 6.1 52 52 NW 8 13 29.83 1010 10 16 0.00 0.00
3:53 am 03:53 Clear 62 16.7 42 5.6 48 48 WNW 7 11 29.83 1010 10 16 0.00 0.00
4:53 am 04:53 Clear 60 15.6 42 5.6 52 52 Calm 29.85 1011 10 16 0.00 0.00
5:53 am 05:53 Clear 60 15.6 42 5.6 52 52 WNW 5 7 29.88 1012 10 16 0.00 0.00
6:53 am 06:53 Sunny 58 14.4 44 6.7 60 60 NW 6 9 29.91 1013 10 16 0.00 0.00
7:53 am 07:53 Sunny 67 19.4 46 7.8 47 47 NNW 6 9 29.92 1013 10 16 0.00 0.00
8:53 am 08:53 Sunny 73 22.8 46 7.8 38 38 NW 10 17 29.91 1013 10 16 0.00 0.00
9:53 am 09:53 Sunny 81 27.2 48 8.9 32 32 WNW 16 26 29.90 1012 10 16 0.00 0.00
10:53 am 10:53 Sunny 89 31.7 48 8.9 24 24 WNW 13 20 29.89 1012 10 16 0.00 0.00
11:53 am 11:53 Sunny 93 33.9 45 7.2 19 19 W 12 19 29.87 1012 10 16 0.00 0.00
12:53 pm 12:53 Sunny 95 35 44 6.7 17 17 WNW 16 26 29.85 1011 10 16 0.00 0.00
1:53 pm 13:53 Sunny 96 35.6 44 6.7 17 17 WNW 16 26 29.83 1010 10 16 0.00 0.00
2:53 pm 14:53 Sunny 97 36.1 41 5 14 14 W 13 20 29.81 1010 10 16 0.00 0.00
3:53 pm 15:53 Sunny 92 33.3 45 7.2 20 20 NW 12 19 29.80 1009 10 16 0.00 0.00
4:53 pm 16:53 Sunny 91 32.8 47 8.3 22 22 WNW 13 20 29.81 1010 10 16 0.00 0.00
5:53 pm 17:53 Sunny 90 32.2 44 6.7 20 20 NW 7 11 29.81 1010 10 16 0.00 0.00
6:53 pm 18:53 Hazy 81 27.2 47 8.3 30 30 W 7 11 29.84 1010 6 10 0.00 0.00
7:27 pm 19:27 Clear with Nearby Thunderstorms 83 28.3 45 7.2 26 26 W 13 20 29.68 1005 10 16 0.00 0.00
7:53 pm 19:53 Windy with Storms Likely 76 24.4 60 15.6 58 58 NW 28 44 29.88 1012 10 16 0.02 0.51
8:01 pm 20:01 Partly Cloudy with Nearby Thunderstorms 76 24.4 56 13.3 50 50 NNW 30 48 29.74 1007 10 16 0.00 0.00
8:18 pm 20:18 Mostly Cloudy 75 23.9 54 12.2 48 48 WSW 16 26 29.80 1009 10 16 0.00 0.00
8:53 pm 20:53 Partly Cloudy 80 26.7 49 9.4 34 34 WNW 14 22 29.90 1013 10 16 0.00 0.00
9:53 pm 21:53 Clear 74 23.3 52 11.1 46 46 WNW 6 9 29.91 1013 10 16 0.00 0.00
10:53 pm 22:53 Mostly Clear 74 23.3 48 8.9 40 40 W 10 17 29.90 1012 10 16 0.00 0.00
11:53 pm 23:53 Partly Cloudy with Light Rain 73 22.8 50 10 44 44 W 7 11 29.88 1012 10 16 0.00 0.00

Powered by AerisWeather